Showing default

BEIDOU 6, 37210

Orbit data source: Space-Track

BEIDOU 6, 37210 is a payload satellite owned by CNSA (CN) in GEO that was launched on Sun, 31 Oct 2010 UTC via a CHANG ZHENG 3C launch vehicle from the Xichang Space Center, China (XSC). Payload-class satellites include a variety of spacecraft equipped with specific instruments for various scientific and technological missions. These include communications satellites like Starlink; space stations such as the ISS; scientific satellites like the Hubble; Earth observation satellites from companies like Planet Labs, Umbra, and HawkEye 360; GPS; miniature CubeSats for education and research; and military/defense satellites.

Not visible in the next 10 days
Identifier
37210, 2010-057A
Orbit
GEO
Last TLE update
10 hours ago
Origin
Manufacturer
CAST
Mission
Operational Defense Navigation
Bus & Motor
DFH-3B, FY-25
Mass
3,060 kg wet, 1,700 kg dry
Launch date (UTC)
2010-10-31 (15 years ago)
Launch vehicle
CHANG ZHENG 3C
Launch site
Xichang Space Center, China (XSC)
Object type
Payload
Rocket body
Debris
Shape & HBR
Box + 2 Pan, 18 m
Radar Cross Section
13.998 m², Large (>1 m²)

Expand to show TLE details & history

TLE from 10 hours ago
0 BEIDOU 6
1 37210U 10057A   25128.84254895 -.00000106  00000-0  00000-0 0  9997
2 37210   2.6451  70.4579 0004809 202.7221  57.0086  1.00273291 53236
Epoch: 2025-05-08T20:13Z
Definitive object data (Epoch: 2025-05-08T20:13:16.229Z)
Latitude
-2.58659°
Longitude
159.99912°
Altitude
35,775.103 km
Speed
3.076 km/s
True Right ascension
22h 00m 53s
True Declination
-2° 35' 02"
Sunlit
Object was in daylight at TLE epoch
Visualization TLE readout
Latitude
1.98267°
Longitude
-50.98471°
Altitude
35,803.587 km
Speed
3.073 km/s
Apparent Right ascension
07h 30m 48s
Apparent Declination
-3° 29' 19"
Sunlit
Object is in daylight
Visualization observer readout
Local Sidereal Time
14:16:51
Azimuth
274.742° WNW
Elevation
-11.059°
Doppler factor
1
Orbital elements
Apogee altitude
35,807.517 km
Perigee altitude
35,766.963 km
Semi-major axis
42,165.377 km
Eccentricity
0.0004809
Inclination
2.6451°
RAAN
70.4579°
Arg. of periapsis
202.7221°
True anomaly
57.05484°
Mean anomaly
57.0086°
Eccentric anomaly
57.03172°
Mean motion
0.25067 °/min
BSTAR
Unknown
Orbital period
1436.13 mins
Loading historical data...
37210 neighbors
Loading maneuver chart data...
Loading SW <> Apogee altitude chart data...
Loading historical data...
Loading historical data...
Loading historical data...
Loading historical data...
Loading historical data...
Loading historical data...
Loading historical data...

BEIDOU 6 Visibility forecast

Observer location: undefined°, undefined°

BEIDOU 6 is not visible in the next 10 days
Span
Click to sort rows by Start time (UTC) header in descending order
Start Az.
Max El. time (UTC)
Max El. Az.
Max El.
End time (UTC)
End Az.
|